Weather History for Minot, ND

Change the Weather History Date:

Monday, August 19, 2013

  Actual Average Record
Temperature  
Mean Temperature 81 °F 68 °F  
Max Temperature 96 °F 81 °F 97 °F (1933)
Min Temperature 66 °F 55 °F 38 °F (1950)
Cooling Degree Days 16 5  
Month to date cooling degree days 61 108  
Year to date cooling degree days 258 366  
Since 1 June cooling degree days 248 350  
Growing Degree Days 30 (Base 50)    
Moisture  
Dew Point 58 °F    
Average Humidity 50    
Maximum Humidity 73    
Minimum Humidity 26    
Precipitation  
Precipitation 0.00 in 0.07 in 0.47 in (1951)
Month to date precipitation 1.34 1.27  
Year to date precipitation 18.75 12.67  
Sea Level Pressure  
Sea Level Pressure 29.78 in    
Wind  
Wind Speed 10 mph (SW)    
Max Wind Speed 18 mph    
Max Gust Speed 25 mph    
Visibility 10 miles    
Events      
T = Trace of Precipitation, MM = Missing Value Source: NWS Daily Summary

Daily Weather History Graph

Daily Weather History Graph

Search for Another Location

Airport:

Trip Planner

Search our weather history database for the weather conditions in past years. The results will help you decide how hot, cold, wet, or windy it might be!

Date:

Astronomy

Aug. 19, 2013 Rise Set
Actual Time 6:45 AM CDT 8:51 PM CDT
Civil Twilight 6:11 AM CDT 9:24 PM CDT
Nautical Twilight 5:29 AM CDT 10:06 PM CDT
Astronomical Twilight 4:42 AM CDT 10:53 PM CDT
Moon 7:43 PM CDT (8/19) 5:03 AM CDT (8/19)
Length of Visible Light 15h 13m
Length of Day
14h 05m
Waxing Gibbous, 97% of the Moon is Illuminated
Aug 19
Waxing Gibbous
Aug 20
Full
Aug 28
Last Quarter
Sep 5
New
Sep 12
First Quarter

Hourly Weather History & Observations

Time (CDT) Temp. Heat Index Dew Point Humidity Pressure Visibility Wind Dir Wind Speed Gust Speed Precip Events Conditions
12:54 AM 66.9 °F - 57.0 °F 70% 29.86 in 10.0 mi SSW 5.8 mph - N/A   Clear
1:54 AM 66.0 °F - 55.9 °F 70% 29.86 in 10.0 mi SW 4.6 mph - N/A   Clear
2:54 AM 69.1 °F - 55.9 °F 63% 29.84 in 10.0 mi SW 8.1 mph - N/A   Clear
3:54 AM 68.0 °F - 54.0 °F 61% 29.84 in 10.0 mi SW 9.2 mph - N/A   Clear
4:54 AM 68.0 °F - 54.0 °F 61% 29.83 in 10.0 mi SW 6.9 mph - N/A   Clear
5:54 AM 66.9 °F - 55.0 °F 66% 29.83 in 10.0 mi SSW 8.1 mph - N/A   Clear
6:54 AM 66.9 °F - 55.0 °F 66% 29.83 in 10.0 mi SW 10.4 mph - N/A   Clear
7:54 AM 69.1 °F - 55.9 °F 63% 29.83 in 10.0 mi SSW 11.5 mph - N/A   Clear
8:54 AM 73.0 °F - 59.0 °F 61% 29.84 in 10.0 mi SSW 10.4 mph - N/A   Clear
9:54 AM 77.0 °F - 61.0 °F 58% 29.83 in 10.0 mi SSW 11.5 mph - N/A   Clear
10:54 AM 82.0 °F 83.0 °F 62.1 °F 51% 29.81 in 10.0 mi SSW 11.5 mph - N/A   Clear
11:54 AM 87.1 °F 86.5 °F 59.0 °F 39% 29.79 in 10.0 mi SSW 12.7 mph - N/A   Clear
12:54 PM 91.0 °F 88.9 °F 55.0 °F 29% 29.78 in 10.0 mi SSW 12.7 mph 19.6 mph N/A   Clear
1:54 PM 91.9 °F 90.0 °F 55.0 °F 29% 29.76 in 10.0 mi SSW 12.7 mph 21.9 mph N/A   Clear
2:54 PM 93.0 °F 90.8 °F 54.0 °F 27% 29.75 in 10.0 mi South 15.0 mph 21.9 mph N/A   Clear
3:54 PM 93.9 °F 92.2 °F 55.9 °F 28% 29.73 in 10.0 mi South 15.0 mph 20.7 mph N/A   Clear
4:54 PM 95.0 °F 93.0 °F 55.0 °F 26% 29.71 in 10.0 mi SSW 12.7 mph 25.3 mph N/A   Clear
5:54 PM 93.0 °F 93.0 °F 61.0 °F 34% 29.70 in 10.0 mi West 16.1 mph - N/A   Partly Cloudy
6:01 PM 93.2 °F 93.3 °F 60.8 °F 34% 29.74 in 10.0 mi West 16.1 mph - N/A   Partly Cloudy
6:54 PM 91.0 °F 90.5 °F 60.1 °F 35% 29.70 in 10.0 mi West 12.7 mph - N/A   Clear
7:54 PM 87.1 °F 87.0 °F 61.0 °F 41% 29.70 in 10.0 mi West 9.2 mph - N/A   Clear
8:54 PM 82.0 °F 83.0 °F 62.1 °F 51% 29.71 in 10.0 mi WSW 6.9 mph - N/A   Clear
9:54 PM 75.0 °F - 63.0 °F 66% 29.72 in 10.0 mi SW 5.8 mph - N/A   Clear
10:54 PM 71.1 °F - 61.0 °F 70% 29.73 in 10.0 mi SW 8.1 mph - N/A   Clear
11:54 PM 70.0 °F - 57.9 °F 65% 29.73 in 10.0 mi West 6.9 mph - N/A   Clear